{"data":{"norad_id":57737,"intl_designator":"2023-131F","name":"STARLINK-30344","alt_names":[],"object_type":"PAYLOAD","status":"ACTIVE","operator":null,"country":"US","launch_date":"2023-09-01","launch_site_code":"AFETR","launch_vehicle":null,"mission":null,"orbit_class":"UNKNOWN","rcs_meters":null,"size_class":null,"mass_kg":null,"dimensions":null,"purposes":["comms"],"wikipedia_slug":null,"has_3d_model":false,"image_url":null,"decayed_at":null,"tle_current":{"epoch":"2026-09-20T03:51:02.227680Z","epoch_age_seconds":160443,"freshness":"FRESH","line1":"1 57737U 23131F   26263.16044245  .00000850  00000+0  40393-4 0  9999","line2":"2 57737  43.0007 183.5553 0001099 265.5067  94.5659 15.27575115169312","mean_motion":15.27575115,"eccentricity":0.0001099,"inclination_deg":43.0007,"raan_deg":183.5553,"arg_perigee_deg":265.5067,"mean_anomaly_deg":94.5659,"bstar":4.0393e-5,"rev_number":16931,"period_min":94.267050167284,"perigee_km":482.30967756649,"apogee_km":483.81776948552,"semimajor_km":6861.200723526,"source":"CELESTRAK","updated_at":"2026-09-21T09:00:33.679186Z"}}}